Regional Weather Roundup
Issued by NWS

Home | Current Version | Previous Version | Graphics & Text | Print | Product List | Glossary On
Versions: 1 2 3 4 5 6 7 8 9 10 11 12 13 14 15 16 17 18 19 20 21 22 23 24 25 26 27 28 29 30 31 32 33 34 35 36 37 38 39 40 41 42 43 44 45 46 47 48 49 50
000
ASUS43 KOAX 231302
RWRNE

WEATHER ROUNDUP FOR NEBRASKA
NATIONAL WEATHER SERVICE OMAHA NE
800 AM CDT SUN APR 23 2017

NOTES: SATELLITE DATA IS BEING USED TO AUGMENT CLOUD COVER ABOVE
       12000 FEET.
       "FAIR" INDICATES FEW OR NO CLOUDS BELOW 12,000 FEET WITH NO
       SIGNIFICANT WEATHER AND/OR OBSTRUCTIONS TO VISIBILITY.

  * THESE STATIONS DO NOT REPORT WEATHER SUCH AS RAIN...SNOW OR FOG.

NEZ001>004-019>022-054>056-231400-
NEBRASKA PANHANDLE

CITY           SKY/WX    TMP DP  RH WIND       PRES   REMARKS
SCOTTSBLUFF    CLOUDY    40  31  70 E10       29.96F WCI  33
ALLIANCE       CLOUDY    41  33  73 S14       29.96F
CHADRON        MOSUNNY   46  32  58 S14       29.89F
KIMBALL        CLOUDY    38  36  94 S10       30.00F WCI  30
SIDNEY         CLOUDY    40  35  83 SW12      30.03F WCI  33
$$

NEZ057>060-069>072-079>082-231400-
SOUTHWEST NEBRASKA

CITY           SKY/WX    TMP DP  RH WIND       PRES   REMARKS
NORTH PLATTE   SUNNY     37  30  75 SE3       30.12R
IMPERIAL       CLOUDY    39  32  76 S8        30.11S WCI  33
LEXINGTON      SUNNY     42  32  67 SW8       30.14R
MCCOOK         CLOUDY    37  32  82 SW3       30.13F
OGALLALA       CLOUDY    37  32  81 S3        30.08F
$$

NEZ005>010-023>029-035>040-094-231400-
NORTH CENTRAL NEBRASKA

CITY           SKY/WX    TMP DP  RH WIND       PRES   REMARKS
VALENTINE      PTSUNNY   48  30  49 S18G25    30.00F
AINSWORTH      CLOUDY    46  33  60 SW17      30.05F
BROKEN BOW     SUNNY     38  28  67 CALM      30.11F
O`NEILL        SUNNY     44  33  64 S8        30.10S
ORD            SUNNY     40  31  70 S5        30.11F
THEDFORD       CLOUDY    41  32  70 S5        30.09S
$$

NEZ041-046>049-061>064-073>077-083>087-231400-
SOUTH CENTRAL NEBRASKA

CITY           SKY/WX    TMP DP  RH WIND       PRES   REMARKS
GRAND ISLAND   SUNNY     47  34  60 SW7       30.16S
AURORA         SUNNY     44  32  60 SW5       30.16S
HASTINGS       SUNNY     45  29  53 SW3       30.17S
HEBRON         SUNNY     38  33  82 CALM      30.18F
HOLDREGE       SUNNY     38  30  70 S5        30.15S WCI  35
KEARNEY *      SUNNY     39  30  70 S5        30.15F
YORK           SUNNY     43  32  65 SW5       30.17R
$$

NEZ011>018-030>034-042>045-231400-
NORTHEAST NEBRASKA

CITY           SKY/WX    TMP DP  RH WIND       PRES   REMARKS
NORFOLK        SUNNY     48  31  51 SW14      30.12F
ALBION         SUNNY     45  33  62 S3        30.13F
BLAIR          SUNNY     46  36  67 S3        30.16S
FREMONT        SUNNY     44  39  84 CALM      30.16F
TEKAMAH        SUNNY     44  39  82 S6        30.15F
WAYNE          SUNNY     45  37  74 SW9       30.13S
$$

NEZ050>053-065>068-078-088>093-231400-
SOUTHEAST NEBRASKA

CITY           SKY/WX    TMP DP  RH WIND       PRES   REMARKS
LINCOLN        SUNNY     40  36  86 CALM      30.19S
OMAHA EPPLEY   MOSUNNY   44  38  79 S6        30.17S
BEATRICE       SUNNY     39  35  86 CALM      30.19R
FALLS CITY     SUNNY     43  37  79 CALM      30.18S
NEBRASKA CITY  SUNNY     50  30  46 W9        30.18R
PLATTSMOUTH    SUNNY     48  29  48 CALM      30.18S
$$

NEZ044-045-051>053-067-231400-
OMAHA AREA

CITY           SKY/WX    TMP DP  RH WIND       PRES   REMARKS
OMAHA EPPLEY   MOSUNNY   44  38  79 S6        30.17S
BLAIR          SUNNY     46  36  67 S3        30.16S
FREMONT        SUNNY     44  39  84 CALM      30.16F
MILLARD        SUNNY     44  42  93 CALM      30.18S
OFFUTT AFB     SUNNY     40  38  94 CALM      30.17S
PLATTSMOUTH    SUNNY     48  29  48 CALM      30.18S
WAHOO          FAIR      43  37  80 CALM      30.17S
$$




USA.gov is the U.S. government's official web portal to all federal, state and local government web resources and services.